Location: Hylvaty SDH
(49.9612°N, 16.4057°E)
Time: 11:46:54
(UTC+01:00)

Tiros 1 - Pass Details

Date: 03 October 2020
Orbit: 630 x 663 km, 48.4° (Epoch: 28 October)

Event Time Altitude Azimuth Distance (km) Brightness Sun altitude
Rises 19:07:38 0° 282° (WNW) 2,975 12.7 -7.2°
Reaches altitude 10° 19:10:10 10° 272° (W) 2,066 11.5 -7.7°
Maximum altitude 19:14:22 31° 210° (SSW) 1,142 8.7 -8.3°
Drops below altitude 10° 19:18:35 10° 149° (SSE) 2,071 9.4 -9.0°
Enters shadow 19:20:38 - 140° (SE) 2,802 10.0 -9.3°
Sets 19:21:07 0° 139° (SE) 2,983 - -9.4°
